Regional Weather Roundup
Issued by NWS

Home | Current Version | Previous Version | Text Only | Print | Product List | Glossary Off
Versions: 1 2 3 4 5 6 7 8 9 10 11 12 13 14 15 16 17 18 19 20 21 22 23 24 25 26 27 28 29 30 31 32 33 34 35 36 37 38 39 40 41 42 43 44 45 46 47 48 49 50

000
ASUS43 KOAX 050702
RWRNE

WEATHER ROUNDUP FOR NEBRASKA
NATIONAL WEATHER SERVICE OMAHA NE
200 AM CDT SUN JUL 05 2015

NOTES: SATELLITE DATA IS BEING USED TO AUGMENT CLOUD COVER ABOVE
       12000 FEET.
       "FAIR" INDICATES FEW OR NO CLOUDS BELOW 12,000 FEET WITH NO
       SIGNIFICANT WEATHER AND/OR OBSTRUCTIONS TO VISIBILITY.

  * THESE STATIONS DO NOT REPORT WEATHER SUCH AS RAIN...SNOW OR FOG.

NEZ001>004-019>022-054>056-050800-
NEBRASKA PANHANDLE

CITY           SKY/WX    TMP DP  RH WIND       PRES   REMARKS
SCOTTSBLUFF    FAIR      69  62  78 SE7       29.87S
ALLIANCE       FAIR      70  63  78 S7        29.87F
CHADRON        FAIR      64  61  90 NE9       29.84R
KIMBALL          N/A    N/A N/A N/A MISG        N/A
SIDNEY         FAIR      70  61  73 S5        29.92S
$$

NEZ057>060-069>072-079>082-050800-
SOUTHWEST NEBRASKA

CITY           SKY/WX    TMP DP  RH WIND       PRES   REMARKS
NORTH PLATTE   FAIR      73  63  70 E13       29.88S
IMPERIAL       FAIR      76  61  59 SE12      29.88F
LEXINGTON      FAIR      75  64  68 S16       29.88F
MCCOOK         FAIR      76  63  64 SE7       29.88S
$$

NEZ005>010-023>029-035>040-094-050800-
NORTH CENTRAL NEBRASKA

CITY           SKY/WX    TMP DP  RH WIND       PRES   REMARKS
VALENTINE      FAIR      78  53  41 W10       29.83R
AINSWORTH      FAIR      75  65  70 S12G20    29.86R
BROKEN BOW     FAIR      75  64  68 SE7       29.89S
O`NEILL        FAIR      73  65  76 S13       29.88R
ORD            FAIR      73  62  68 SE6       29.88R
$$

NEZ041-046>049-061>064-073>077-083>087-050800-
SOUTH CENTRAL NEBRASKA

CITY           SKY/WX    TMP DP  RH WIND       PRES   REMARKS
GRAND ISLAND   FAIR      72  63  73 S15       29.91F
AURORA         FAIR      71  65  82 S13       29.92S
HASTINGS       FAIR      73  63  70 S9        29.92S
KEARNEY *      FAIR      72  61  68 S14       29.90S
$$

NEZ011>018-030>034-042>045-050800-
NORTHEAST NEBRASKA

CITY           SKY/WX    TMP DP  RH WIND       PRES   REMARKS
NORFOLK        FAIR      70  65  84 S13       29.90S
BLAIR          FAIR      70  61  73 S10       29.94F
COLUMBUS *     FAIR      70  61  73 S8        29.88F
FREMONT        FAIR      71  63  75 SE12      29.93F
TEKAMAH        FAIR      68  63  84 SE7       29.93F
$$

NEZ050>053-065>068-078-088>093-050800-
SOUTHEAST NEBRASKA

CITY           SKY/WX    TMP DP  RH WIND       PRES   REMARKS
LINCOLN        FAIR      71  64  78 S10       29.94F
OMAHA EPPLEY   FAIR      70  62  76 S9        29.95F
FALLS CITY     FAIR      67  64  90 SE7       29.97F
PLATTSMOUTH    FAIR      69  60  75 SE10      29.96F
$$

NEZ044-045-051>053-067-050800-
OMAHA AREA

CITY           SKY/WX    TMP DP  RH WIND       PRES   REMARKS
OMAHA EPPLEY   FAIR      70  62  76 S9        29.95F
BLAIR          FAIR      70  61  73 S10       29.94F
FREMONT        FAIR      71  63  75 SE12      29.93F
MILLARD        FAIR      69  63  81 SE5       29.94F
OFFUTT AFB     FAIR      64  60  89 E6        29.94F
PLATTSMOUTH    FAIR      69  60  75 SE10      29.96F
$$


USA.gov is the U.S. government's official web portal to all federal, state and local government web resources and services.